This is the latest recevied weather packets stored in our database for station/object WA4IKQ. If no packets are shown the sender has not sent any weather packets the latest 10 day(s).
| Time | Temp. | Humidity | Pressure | Rain* | Wind** | Luminosity | Snow |
|---|---|---|---|---|---|---|---|
| 1777857283 | 21.67° C | 68% | 1016.7 hPa | 0 mm | 2.68 m/s, 0° | - | - |
| 1777856711 | 21.67° C | 68% | 1016.7 hPa | 0 mm | 1.79 m/s, 32° | - | - |
| 1777856384 | 21.67° C | 68% | 1016.7 hPa | 0 mm | 1.79 m/s, 32° | - | - |
| 1777856164 | 21.67° C | 67% | 1016.6 hPa | 0 mm | 1.34 m/s, 6° | - | - |
| 1777855812 | 22.22° C | 67% | 1016.6 hPa | 0 mm | 0.45 m/s, 328° | - | - |
| 1777855781 | 21.67° C | 67% | 1016.6 hPa | 0 mm | 1.34 m/s, 6° | - | - |
| 1777855482 | 22.22° C | 67% | 1016.6 hPa | 0 mm | 0.45 m/s, 328° | - | - |
| 1777855419 | 22.22° C | 67% | 1016.5 hPa | 0 mm | 2.24 m/s, 359° | - | - |
| 1777855182 | 22.22° C | 67% | 1016.5 hPa | 0 mm | 2.24 m/s, 359° | - | - |
| 1777854882 | 22.22° C | 66% | 1016.4 hPa | 0 mm | 2.24 m/s, 6° | - | - |
| 1777854580 | 22.22° C | 66% | 1016.3 hPa | 0 mm | 2.24 m/s, 4° | - | - |
| 1777854280 | 22.22° C | 66% | 1016.3 hPa | 0 mm | 2.24 m/s, 354° | - | - |
| 1777854193 | 22.22° C | 66% | 1016.3 hPa | 0 mm | 1.79 m/s, 23° | - | - |
| 1777853981 | 22.22° C | 66% | 1016.3 hPa | 0 mm | 1.79 m/s, 23° | - | - |
| 1777853896 | 22.78° C | 65% | 1016.2 hPa | 0 mm | 3.13 m/s, 359° | - | - |
| 1777853556 | 22.78° C | 65% | 1016.1 hPa | 0 mm | 1.34 m/s, 41° | - | - |
| 1777853381 | 22.78° C | 65% | 1016.2 hPa | 0 mm | 3.13 m/s, 359° | - | - |
| 1777853082 | 22.78° C | 65% | 1016.1 hPa | 0 mm | 1.34 m/s, 41° | - | - |
| 1777852901 | 22.78° C | 64% | 1016.1 hPa | 0 mm | 0.89 m/s, 45° | - | - |
| 1777852779 | 22.78° C | 64% | 1016.1 hPa | 0 mm | 2.24 m/s, 342° | - | - |
| 1777852480 | 22.78° C | 64% | 1016.1 hPa | 0 mm | 0.89 m/s, 45° | - | - |
| 1777852179 | 22.78° C | 64% | 1016 hPa | 0 mm | 1.79 m/s, 46° | - | - |
| 1777852118 | 22.78° C | 63% | 1016 hPa | 0 mm | 1.34 m/s, 7° | - | - |
| 1777851883 | 22.78° C | 63% | 1016 hPa | 0 mm | 1.34 m/s, 7° | - | - |
| 1777851603 | 23.33° C | 62% | 1016 hPa | 0 mm | 0.89 m/s, 326° | - | - |
* Rain latest hour (hover to see other rain measurements)
** Current wind speed in m/s (hover to see current wind gust speed)